Powrót do katalogu

NOAA 16 DEB

AktywnyPO
NORAD 41064·DEBRIS·🇺🇸 United States

Wystrzelony Sep 21, 2000 z Vandenberg Space Force Base

Loading…

Następne Przeloty (najbliższe 24 godziny)

TLE

ŚwieżeSource: Space-Track

Epoka: Sep 14, 2026, 07:47 UTC

1 41064U 00055X   26257.32453875  .00004761  00000-0  13159-2 0  9993
2 41064  98.8579  39.0191 0010316 318.6876  41.3533 14.47175433560881

Śledź NOAA 16 DEB w czasie rzeczywistym z AllMySat

Download on the App Store